Weather in Atazhukino

Russia / The Kabardino-Balkar Republic     43°38′48″N   43°23′48″E
temp.,
°C
wind,
m/s
gust,
m/s
humid.,
%
clouds,
%
prec.,
mm/h
press.,
hPa
HPBL,
m
9 december, thu
thu900:00+7wsw22544 0.0 101010
03:00+7wsw1157100 0.0 101110
06:00+7w2259100 0.0 101314
09:00+9w2261100 0.0 101530
12:00+12nnw355192 0.0 1015764
15:00+12nnw235648 0.0 1016281
18:00+9w117082 0.0 101810
21:00+8sw117385 0.0 102010
10 december, fri
fri1000:00+8nw1172100 0.0 102110
03:00+7nnw1179100 0.0 102312
06:00+7wsw1192100 1.3 102419
09:00+7wnw2487100 5.4 1026241
12:00+8ssw117696 0.1 1025155
15:00+9sse117358 0.1 1025398
18:00+7s22865 0.0 102625
21:00+6ssw22850 0.0 102510
11 december, sat
sat1100:00+5s11810 0.0 102410
03:00+4s11810 0.0 102410
06:00+3se11870 0.0 102410
09:00+4se12917 0.0 102597
12:00+6ese348259 0.0 1023460
15:00+7ese3478100 0.0 1023607
18:00+6ese348495 0.0 1025244
21:00+4ese3484100 0.0 1026241
12 december, sun
sun1200:00+2e2293100 0.0 102753
03:00+2e129296 0.0 1028193
06:00+2ese239299 0.0 1028231
09:00+2ese2491100 0.0 1029270
12:00+3ese348898 0.0 1028454
15:00+4ese578398 0.0 1028596
18:00+3ese488391 0.0 1029396
21:00+1ese479087 0.0 1029316
13 december, mon
mon1300:000ese369694 0.0 1028281
03:000ese4797100 0.0 1028355
06:000ese4796100 0.0 1027405
09:000ese4794100 0.0 1027446
12:00+2ese5787100 0.0 1025655
15:00+3ese588099 0.0 1024640
18:00+3sse258299 0.0 1024320
21:00+3ese3690100 0.0 1023429